When you browse on this site, cookies collect data to enhance your experience and personalize the content and advertising you see.
Visit our Privacy Policy to learn more. By continuing to use the site, you agree to this use of cookies and data.
  • In Hungary
  • List of Countries
  • For 7 days
  • Water Temperature
  • Weather Map
  • News
  • Weather Widgets
  • user-avatar
    Login

    Hourly Weather Kufstein

    Today, 7 December, Saturday

    Time Temperature Precipitation Wind Pressure Humidity
    00:00 +3°C° 0 mm 2 mps 715 mmHg 57%
    01:00 +2°C° 0 mm 3 mps 715 mmHg 56%
    02:00 +4°C° 0 mm 2 mps 715 mmHg 56%
    03:00 +4°C° 0 mm 2 mps 714 mmHg 57%
    04:00 +5°C° 0 mm 1 mps 714 mmHg 58%
    05:00 +5°C° 0 mm 1 mps 714 mmHg 60%
    06:00 +5°C° 0 mm 1 mps 714 mmHg 63%
    07:00 +6°C° 0 mm 1 mps 714 mmHg 61%
    08:00 +6°C° 0.1 mm 1 mps 715 mmHg 64%
    09:00 +7°C° 0.1 mm 1 mps 715 mmHg 66%
    10:00 +7°C° 0.1 mm 1 mps 715 mmHg 68%
    11:00 +7°C° 0.2 mm 1 mps 715 mmHg 75%
    12:00 +7°C° 0.2 mm 1 mps 715 mmHg 83%
    13:00 +7°C° 0 mm 1 mps 715 mmHg 91%
    14:00 +7°C° 0.1 mm 1 mps 715 mmHg 93%
    15:00 +7°C° 0.1 mm 1 mps 715 mmHg 94%
    16:00 +6°C° 0.1 mm 1 mps 715 mmHg 96%
    17:00 +6°C° 0.1 mm 1 mps 716 mmHg 96%
    18:00 +7°C° 0.1 mm 1 mps 717 mmHg 95%
    19:00 +7°C° 0.1 mm 1 mps 717 mmHg 95%
    20:00 +6°C° 0 mm 1 mps 717 mmHg 95%
    21:00 +6°C° 0 mm 1 mps 717 mmHg 95%
    22:00 +6°C° 0 mm 1 mps 717 mmHg 94%
    23:00 +6°C° 0 mm 1 mps 717 mmHg 93%

    Tomorrow, 8 December, Sunday

    Time Temperature Precipitation Wind Pressure Humidity
    00:00 +5°C° 0 mm 1 mps 717 mmHg 91%
    01:00 +5°C° 0 mm 1 mps 717 mmHg 89%
    02:00 +5°C° 0 mm 1 mps 717 mmHg 87%
    03:00 +4°C° 0 mm 2 mps 716 mmHg 84%
    04:00 +3°C° 0 mm 2 mps 715 mmHg 81%
    05:00 +3°C° 0 mm 2 mps 715 mmHg 78%
    06:00 +3°C° 0 mm 2 mps 715 mmHg 76%
    07:00 +3°C° 0 mm 2 mps 715 mmHg 73%
    08:00 +4°C° 0 mm 2 mps 715 mmHg 70%
    09:00 +6°C° 0 mm 1 mps 715 mmHg 66%
    10:00 +8°C° 0 mm 1 mps 715 mmHg 63%
    11:00 +8°C° 0 mm 1 mps 714 mmHg 65%
    12:00 +9°C° 0 mm 1 mps 713 mmHg 66%
    13:00 +9°C° 0 mm 0 mps 713 mmHg 68%
    14:00 +9°C° 0 mm 1 mps 713 mmHg 68%
    15:00 +8°C° 0 mm 1 mps 712 mmHg 68%
    16:00 +7°C° 0 mm 1 mps 712 mmHg 69%
    17:00 +6°C° 0 mm 1 mps 712 mmHg 67%
    18:00 +5°C° 0 mm 2 mps 712 mmHg 66%
    19:00 +4°C° 0 mm 2 mps 712 mmHg 64%
    20:00 +4°C° 0 mm 2 mps 711 mmHg 63%
    21:00 +4°C° 0 mm 2 mps 711 mmHg 62%
    22:00 +4°C° 0 mm 2 mps 711 mmHg 61%
    23:00 +4°C° 0 mm 2 mps 710 mmHg 62%

    Day after tomorrow, 9 December, Monday

    Time Temperature Precipitation Wind Pressure Humidity
    00:00 +4°C° 0 mm 2 mps 710 mmHg 62%
    01:00 +5°C° 0 mm 2 mps 710 mmHg 63%
    02:00 +5°C° 0 mm 2 mps 709 mmHg 63%
    03:00 +5°C° 0 mm 2 mps 709 mmHg 64%
    04:00 +5°C° 0 mm 2 mps 708 mmHg 64%
    05:00 +4°C° 0.1 mm 2 mps 709 mmHg 70%
    06:00 +4°C° 0.1 mm 2 mps 709 mmHg 77%
    07:00 +4°C° 0.1 mm 2 mps 709 mmHg 83%
    08:00 +4°C° 0.2 mm 2 mps 709 mmHg 83%
    09:00 +5°C° 0.2 mm 2 mps 709 mmHg 84%
    10:00 +5°C° 0.2 mm 2 mps 709 mmHg 84%
    11:00 +6°C° 0 mm 2 mps 708 mmHg 80%
    12:00 +8°C° 0 mm 1 mps 708 mmHg 76%
    13:00 +9°C° 0 mm 1 mps 708 mmHg 72%
    14:00 +8°C° 0.1 mm 1 mps 708 mmHg 76%
    15:00 +7°C° 0.1 mm 1 mps 708 mmHg 79%
    16:00 +6°C° 0.1 mm 1 mps 708 mmHg 83%
    17:00 +5°C° 0.1 mm 1 mps 709 mmHg 85%
    18:00 +4°C° 0.1 mm 2 mps 709 mmHg 88%
    19:00 +4°C° 0.1 mm 2 mps 710 mmHg 90%
    20:00 +3°C° 0.1 mm 2 mps 711 mmHg 91%
    21:00 +3°C° 0.1 mm 2 mps 712 mmHg 91%
    22:00 +3°C° 0.1 mm 2 mps 712 mmHg 91%
    23:00 +3°C° 0.9 mm 2 mps 713 mmHg 93%

    10 December, Tuesday

    Time Temperature Precipitation Wind Pressure Humidity
    00:00 +3°C° 0.9 mm 2 mps 714 mmHg 95%
    01:00 +3°C° 0.9 mm 2 mps 715 mmHg 97%
    02:00 +2°C° 0.9 mm 2 mps 716 mmHg 96%
    03:00 +1°C° 0.9 mm 2 mps 717 mmHg 95%
    04:00 +1°C° 0.9 mm 2 mps 717 mmHg 94%
    05:00 -1°C° 0.2 mm 2 mps 718 mmHg 93%
    06:00 -2°C° 0.2 mm 2 mps 719 mmHg 93%
    07:00 0°C° 0.2 mm 1 mps 720 mmHg 93%
    08:00 -2°C° 0.2 mm 2 mps 721 mmHg 91%
    09:00 -1°C° 0.2 mm 2 mps 721 mmHg 89%
    10:00 +1°C° 0.2 mm 2 mps 722 mmHg 87%
    11:00 +1°C° 0.1 mm 2 mps 722 mmHg 82%
    12:00 +3°C° 0.1 mm 1 mps 721 mmHg 78%
    13:00 +3°C° 0.1 mm 1 mps 721 mmHg 74%
    14:00 +2°C° 0 mm 1 mps 721 mmHg 77%
    15:00 +1°C° 0 mm 1 mps 721 mmHg 81%
    16:00 0°C° 0 mm 0 mps 721 mmHg 85%
    17:00 0°C° 0 mm 1 mps 721 mmHg 83%
    18:00 -1°C° 0 mm 1 mps 721 mmHg 81%
    19:00 -3°C° 0 mm 2 mps 721 mmHg 79%
    20:00 -4°C° 0 mm 2 mps 720 mmHg 75%
    21:00 -4°C° 0 mm 2 mps 720 mmHg 71%
    22:00 -4°C° 0 mm 2 mps 720 mmHg 67%
    23:00 -3°C° 0 mm 2 mps 719 mmHg 64%

    11 December, Wednesday

    Time Temperature Precipitation Wind Pressure Humidity
    00:00 -3°C° 0 mm 2 mps 719 mmHg 60%
    01:00 -3°C° 0 mm 2 mps 718 mmHg 56%
    02:00 -3°C° 0 mm 2 mps 717 mmHg 54%
    03:00 -2°C° 0 mm 2 mps 717 mmHg 51%
    04:00 -2°C° 0 mm 2 mps 716 mmHg 49%
    05:00 -2°C° 0 mm 2 mps 716 mmHg 48%
    06:00 -1°C° 0 mm 2 mps 716 mmHg 47%
    07:00 +1°C° 0 mm 1 mps 716 mmHg 46%
    08:00 +2°C° 0 mm 1 mps 716 mmHg 47%
    09:00 +4°C° 0 mm 1 mps 716 mmHg 48%
    10:00 +5°C° 0 mm 1 mps 716 mmHg 48%
    11:00 +6°C° 0 mm 1 mps 715 mmHg 52%
    12:00 +6°C° 0 mm 0 mps 715 mmHg 55%
    13:00 +7°C° 0 mm 0 mps 714 mmHg 59%
    14:00 +6°C° 0 mm 0 mps 714 mmHg 59%
    15:00 +4°C° 0 mm 0 mps 713 mmHg 59%
    16:00 +3°C° 0 mm 0 mps 713 mmHg 59%
    17:00 +2°C° 0 mm 0 mps 713 mmHg 59%
    18:00 +3°C° 0 mm 1 mps 713 mmHg 58%
    19:00 +2°C° 0 mm 1 mps 713 mmHg 58%
    20:00 +2°C° 0 mm 1 mps 713 mmHg 60%
    21:00 +2°C° 0 mm 1 mps 713 mmHg 61%
    22:00 +3°C° 0 mm 1 mps 713 mmHg 63%
    23:00 +3°C° 0.1 mm 1 mps 713 mmHg 71%

    12 December, Thursday

    Time Temperature Precipitation Wind Pressure Humidity
    00:00 +3°C° 0.1 mm 1 mps 712 mmHg 79%
    01:00 +3°C° 0.1 mm 1 mps 712 mmHg 87%
    02:00 +3°C° 0.5 mm 1 mps 712 mmHg 90%
    03:00 +3°C° 0.5 mm 1 mps 712 mmHg 94%
    04:00 +3°C° 0.5 mm 1 mps 711 mmHg 97%
    05:00 +3°C° 0.2 mm 1 mps 711 mmHg 96%
    06:00 +3°C° 0.2 mm 1 mps 711 mmHg 96%
    07:00 +3°C° 0.2 mm 1 mps 711 mmHg 95%
    08:00 +3°C° 0.4 mm 1 mps 712 mmHg 93%
    09:00 +3°C° 0.4 mm 1 mps 712 mmHg 91%
    10:00 +3°C° 0.4 mm 1 mps 712 mmHg 88%
    11:00 +3°C° 0.1 mm 2 mps 712 mmHg 83%
    12:00 +3°C° 0.1 mm 2 mps 712 mmHg 78%
    13:00 +3°C° 0.1 mm 2 mps 712 mmHg 73%
    14:00 +2°C° 0.1 mm 2 mps 712 mmHg 77%
    15:00 +2°C° 0.1 mm 1 mps 712 mmHg 82%
    16:00 +1°C° 0.1 mm 1 mps 712 mmHg 86%
    17:00 +1°C° 0 mm 1 mps 713 mmHg 87%
    18:00 0°C° 0 mm 1 mps 713 mmHg 88%
    19:00 0°C° 0 mm 1 mps 713 mmHg 88%
    20:00 -1°C° 0 mm 1 mps 713 mmHg 87%
    21:00 -3°C° 0 mm 2 mps 713 mmHg 85%
    22:00 -3°C° 0 mm 2 mps 713 mmHg 83%
    23:00 -3°C° 0 mm 2 mps 712 mmHg 79%
    Show more